Charleston, SC

8:04 PM EDT on May 24, 2018 (GMT -0400)
Charleston Air Force Base-International

Weather History for KCHS - December, 2012

Change the Weather History Date:

Thursday, December 6, 2012

  Actual Average Record
Temperature  
Mean Temperature 60 °F 53 °F  
Max Temperature 67 °F 64 °F 82 °F (2013)
Min Temperature 52 °F 42 °F 27 °F (2000)
Degree Days  
Heating Degree Days 5 12  
Month to date heating degree days 18 70  
Since 1 July heating degree days 422 362  
Cooling Degree Days 0 0  
Month to date cooling degree days 1 0  
Year to date cooling degree days 2461 2297  
Growing Degree Days 10 (Base 50)    
Moisture  
Dew Point 50 °F    
Average Humidity 82    
Maximum Humidity 100    
Minimum Humidity 63    
Precipitation  
Precipitation 0.00 in 0.10 in 2.58 in (2016)
Month to date precipitation 0.00 0.56  
Year to date precipitation 40.41 48.48  
Snow  
Snow 0.00 in 0.00 in - ()
Month to date snowfall 0.0  
Since 1 July snowfall 0.0 0.0  
Snow Depth 0.00 in    
Sea Level Pressure  
Sea Level Pressure 30.15 in    
Wind  
Wind Speed 9 mph (NE)    
Max Wind Speed 16 mph    
Max Gust Speed 22 mph    
Visibility 10 miles    
Events      
T = Trace of Precipitation, MM = Missing Value Source: NWS Daily Summary

Daily Weather History Graph

Daily Weather History Graph

Search for Another Location

Airport or City:

Astronomy

Dec. 06, 2012 Rise Set
Actual Time 7:09 AM EST 5:13 PM EST
Civil Twilight 6:42 AM EST 5:40 PM EST
Nautical Twilight 6:11 AM EST 6:11 PM EST
Astronomical Twilight 5:41 AM EST 6:41 PM EST
Moon No Moon Rise 12:19 PM EST (12/6)
Length of Visible Light 10h 58m
Length of Day
10h 04m
Waning Gibbous, 49% of the Moon is Illuminated
Dec 6
Waning Gibbous
Dec 13
New
Dec 20
First Quarter
Dec 28
Full
Jan 4
Last Quarter

Hourly Weather History & Observations

Time (EST) Temp. Dew Point Humidity Pressure Visibility Wind Dir Wind Speed Gust Speed Precip Events Conditions
12:56 AM 55.0 °F 52.0 °F 89% 30.13 in 10.0 mi North 5.8 mph - N/A   Mostly Cloudy
1:56 AM 55.9 °F 53.1 °F 90% 30.13 in 10.0 mi NNE 5.8 mph - N/A   Mostly Cloudy
2:56 AM 54.0 °F 53.1 °F 97% 30.13 in 10.0 mi NNE 3.5 mph - N/A   Mostly Cloudy
3:56 AM 54.0 °F 53.1 °F 97% 30.13 in 10.0 mi Calm Calm - N/A   Mostly Cloudy
4:03 AM 55.4 °F 53.6 °F 94% 30.13 in 10.0 mi Calm Calm - N/A   Mostly Cloudy
4:56 AM 55.0 °F 54.0 °F 96% 30.13 in 10.0 mi NE 6.9 mph - N/A   Mostly Cloudy
5:56 AM 54.0 °F 52.0 °F 93% 30.14 in 10.0 mi NNE 9.2 mph - N/A   Scattered Clouds
6:22 AM 55.4 °F 53.6 °F 94% 30.15 in 10.0 mi ENE 5.8 mph - N/A   Overcast
6:56 AM 55.0 °F 52.0 °F 89% 30.16 in 10.0 mi ENE 8.1 mph - N/A   Mostly Cloudy
7:56 AM 54.0 °F 51.1 °F 90% 30.18 in 10.0 mi NE 10.4 mph - N/A   Mostly Cloudy
8:56 AM 55.0 °F 48.9 °F 80% 30.19 in 10.0 mi NE 9.2 mph - N/A   Mostly Cloudy
9:56 AM 59.0 °F 50.0 °F 72% 30.20 in 10.0 mi ENE 10.4 mph - N/A   Scattered Clouds
10:56 AM 61.0 °F 50.0 °F 67% 30.19 in 10.0 mi ENE 8.1 mph 18.4 mph N/A   Scattered Clouds
11:56 AM 62.1 °F 50.0 °F 65% 30.17 in 10.0 mi ENE 8.1 mph - N/A   Scattered Clouds
12:56 PM 64.9 °F 51.1 °F 61% 30.15 in 10.0 mi ENE 9.2 mph - N/A   Scattered Clouds
1:56 PM 64.9 °F 51.1 °F 61% 30.13 in 10.0 mi ENE 12.7 mph 16.1 mph N/A   Mostly Cloudy
2:56 PM 63.0 °F 51.1 °F 65% 30.13 in 10.0 mi NE 10.4 mph - N/A   Mostly Cloudy
3:56 PM 62.1 °F 51.1 °F 67% 30.14 in 10.0 mi ENE 11.5 mph - N/A   Mostly Cloudy
4:09 PM 62.6 °F 51.8 °F 68% 30.14 in 10.0 mi ENE 8.1 mph - N/A   Mostly Cloudy
4:56 PM 60.1 °F 51.1 °F 72% 30.14 in 10.0 mi ENE 9.2 mph - N/A   Mostly Cloudy
5:56 PM 59.0 °F 51.1 °F 75% 30.15 in 10.0 mi ENE 11.5 mph - N/A   Mostly Cloudy
6:56 PM 57.0 °F 50.0 °F 77% 30.17 in 10.0 mi ENE 11.5 mph 21.9 mph N/A   Overcast
7:56 PM 55.9 °F 46.9 °F 72% 30.17 in 10.0 mi NNE 13.8 mph - N/A   Mostly Cloudy
8:56 PM 55.0 °F 45.0 °F 69% 30.17 in 10.0 mi NE 9.2 mph - N/A   Overcast
9:56 PM 53.1 °F 43.0 °F 69% 30.16 in 10.0 mi NE 9.2 mph - N/A   Overcast
10:56 PM 53.1 °F 43.0 °F 69% 30.14 in 10.0 mi NNE 8.1 mph - N/A   Mostly Cloudy
11:56 PM 52.0 °F 42.1 °F 69% 30.13 in 10.0 mi NE 10.4 mph - N/A   Mostly Cloudy